Station DBLN6 - Dunkirk, NY Image indicating link to RSS feed of recent meteorological observations for station DBLN6


Conditions at DBLN6 as of
(2:00 am EDT)
0600 GMT on 05/30/2024:
     

Click on the graph icon in the table below to see a time series plot of the last five days of that observation.

5-day plot - Wind Direction Wind Direction (WDIR):NNE ( 30 deg true )
5-day plot - Wind Speed Wind Speed (WSPD): 8 kts
5-day plot - Wind Gust Wind Gust (GST): 10 kts
5-day plot - Atmospheric Pressure Atmospheric Pressure (PRES):30.09 in
5-day plot - Pressure Tendency Pressure Tendency (PTDY):+0.04 in ( Rising )
5-day plot - Air Temperature Air Temperature (ATMP): 56.3 °F
5-day plot - Wind Speed at 10 Meters Wind Speed at 10 meters (WSPD10M): 8 kts
5-day plot - Wind Speed at 20 Meters Wind Speed at 20 meters (WSPD20M): 8 kts
5-day plot -  Wind Speed, Wind Gust and Atmospheric Pressure Combined plot of Wind Speed, Gust, and Air Pressure
Continuous Winds
TIME
(EDT)
5-day plot - Wind Direction WDIR 5-day plot - Wind Speed WSPD
2:00 amNE ( 37 deg ) 8 kts
1:50 amNE ( 37 deg ) 7 kts
1:40 amNE ( 42 deg ) 8 kts
1:30 amNE ( 36 deg ) 7 kts
1:20 amNNE ( 29 deg ) 7 kts
1:10 amNE ( 37 deg ) 8 kts
 
Peak gust during the measurement hour
TIME
(EDT)
5-day plot - Gust Direction GDR 5-day plot - Gust Speed GST
1:00 amNNE ( 30 deg ) 11 kts
Previous observations
TIME
(EDT)
5-day plot - Wind Direction
WDIR
 
5-day plot - Wind Speed
WSPD
kts
5-day plot - Wind Gust
GST
kts
5-day plot - Wave Height
WVHT
ft
5-day plot - Dominant Wave Period
DPD
sec
5-day plot - Average Wave Period
APD
sec
5-day plot - Mean Wave Direction
MWD
 
5-day plot - Atmospheric Pressure
PRES
in
5-day plot - Pressure Tendency
PTDY
in
5-day plot - Air Temperature
ATMP
°F
5-day plot - Water Temperature
WTMP
°F
5-day plot - Dew Point
DEWP
°F
5-day plot - Salinity
SAL
psu
5-day plot - Visibility
VIS
nmi
5-day plot - Tide (above MLLW)
TIDE
ft
2024-05-30 01:00 amNNE 8 10----30.08+0.04 57.0-----
2024-05-30 12:00 am N 15 17----30.06+0.03 57.9-----
2024-05-29 11:00 pmWNW 5 6----30.05+0.02 58.3-----
2024-05-29 10:00 pm NW 9 11----30.04+0.03 58.6-----
2024-05-29 09:00 pm NW 10 10----30.03+0.02 59.2-----
2024-05-29 08:00 pmNNE 4 5----30.03+0.02 61.0-----
2024-05-29 07:00 pm N 7 8----30.01+0.02 61.2-----
2024-05-29 06:00 pm N 9 10----30.01+0.02 61.5-----
2024-05-29 05:00 pm N 8 10----30.01+0.02 61.0-----
2024-05-29 04:00 pm N 9 10----30.00+0.00 61.2-----
2024-05-29 03:00 pmWNW 3 4----29.99-0.01 59.7-----
2024-05-29 02:00 pmNNW 5 6----29.99-0.01 60.1-----
2024-05-29 01:00 pmNNW 4 5----29.99+0.00 59.5-----
2024-05-29 12:00 pmNNE 7 8----30.00+0.00 57.9-----
2024-05-29 11:00 am NW 5 6----30.00+0.02 58.8-----
2024-05-29 10:00 am N 1 2----30.00+0.04 59.5-----
2024-05-29 09:00 amNNE 2 2----30.00+0.04 57.4-----
2024-05-29 08:00 amNNE 1 2----29.98+0.04 56.5-----
2024-05-29 07:00 am S 3 3----29.96+0.03 55.8-----
2024-05-29 06:00 amSSE 3 4----29.96+0.03 54.9-----
2024-05-29 05:00 am S 3 3----29.94+0.02 55.2-----
2024-05-29 04:00 amSSE 3 4----29.93+0.00 54.0-----
2024-05-29 03:00 am S 4 5----29.93+0.00 54.7-----